Hourly Weather Roundup
Issued by NWS Central Illinois

Home | Current Version | Previous Version | Text Only | Print | Product List | Glossary On
Versions: 1 2 3 4 5 6 7 8 9 10 11 12 13 14 15 16 17 18 19 20 21 22 23 24 25 26 27 28 29 30 31 32 33 34 35 36 37 38 39 40 41 42 43 44 45 46 47 48 49 50
499
NZUS43 KILX 240010
HWRILX

AREA WEATHER ROUNDUP
NATIONAL WEATHER SERVICE, LINCOLN IL
700 PM CDT THU MAR 23 2017


CITY           SKY/WX    TMP DP  RH WIND       PRES   REMARKS
BLOOMINGTON    PTCLDY    45  33  63 SE18      30.06F
6HR MIN TEMP:  42; 6HR MAX TEMP:  47; 6HR PCP: TRACE;

CHAMPAIGN      CLOUDY    47  30  51 SE18G25   30.10F
6HR MIN TEMP:  46; 6HR MAX TEMP:  50; 6HR PCP: TRACE;

DECATUR        CLEAR     46  34  62 SE13      30.08F
6HR MIN TEMP:  43; 6HR MAX TEMP:  47; 6HR PCP:  0.01;

EFFINGHAM      CLEAR     48  40  74 E15G21    30.14F
6HR MIN TEMP:  40; 6HR MAX TEMP:  51;

FLORA          CLEAR     50  42  73 SE10      30.15F
6HR MIN TEMP:  40; 6HR MAX TEMP:  53; 6HR PCP:  0.06;

GALESBURG      CLOUDY    43  38  80 SE9G17    29.97F
6HR MIN TEMP:  38; 6HR MAX TEMP:  46;

JACKSONVILLE   CLEAR     49  42  76 SE17      30.01F
6HR MIN TEMP:  37; 6HR MAX TEMP:  51;

LACON          PTCLDY    45  34  66 SE8       30.04R
6HR MIN TEMP:  40; 6HR MAX TEMP:  46;

LAWRENCEVILLE  CLEAR     50  36  58 SE9       30.19F
6HR MIN TEMP:  45; 6HR MAX TEMP:  53;

LITCHFIELD     CLEAR     50  42  72 SE16      30.05F
6HR MIN TEMP:  37; 6HR MAX TEMP:  51;

$$


CITY           SKY/WX    TMP DP  RH WIND       PRES   REMARKS
LINCOLN        CLEAR     46  38  75 S16G22    30.05F
6HR MIN TEMP:  41; 6HR MAX TEMP:  48;

MACOMB         CLEAR     46  41  83 SE16      29.99S
6HR MIN TEMP:  38; 6HR MAX TEMP:  48;

MATTOON        MOCLDY    47  35  63 SE18G24   30.11F
6HR MIN TEMP:  42; 6HR MAX TEMP:  48; 6HR PCP: TRACE;

MT CARMEL AP   CLEAR     50  37  62 SE9       30.18F
6HR MIN TEMP:  42; 6HR MAX TEMP:  53;

OLNEY-NOBLE AP CLEAR     46  41  81 SE9       30.16F
PARIS          CLOUDY    48  32  53 SE14      30.15F
PEORIA         CLEAR     46  37  71 S13       30.03F
6HR MIN TEMP:  40; 6HR MAX TEMP:  47; 6HR PCP: TRACE;

PONTIAC        MOCLDY    46  33  61 SE15      30.06F
6HR MIN TEMP:  43; 6HR MAX TEMP:  48;

RANTOUL        CLOUDY    48  34  56 SE15      30.10F
6HR MIN TEMP:  46; 6HR MAX TEMP:  51;

SPRINGFIELD    CLEAR     48  40  73 SE16      30.04F
6HR MIN TEMP:  40; 6HR MAX TEMP:  49; 6HR PCP:  0.03;

TAYLORVILLE    PTCLDY    45  39  81 SE16G22   30.07F
$$

...REGIONAL REPORTS...


CITY           SKY/WX    TMP DP  RH WIND       PRES   REMARKS
CHICAGO O`HARE CLOUDY    50  26  39 S20G28    30.06F
KANKAKEE       CLOUDY    49  27  42 SE12      30.10F
MOLINE         CLOUDY    46  36  68 SE12      29.95F
MOUNT STERLING CLEAR     50  41  70 SE16      29.95F
MOUNT VERNON   CLEAR     52  42  69 SE6       30.13F
PITTSFIELD     CLEAR     54  43  66 SE13      29.98F
QUINCY         CLEAR     54  40  59 SE17G25   29.92F
ROCKFORD       TSTM      44  32  62 S20G25    30.03F
$$


CITY           SKY/WX    TMP DP  RH WIND       PRES   REMARKS
BURLINGTON     PTCLDY    48  41  76 SE10      29.94F
CEDAR RAPIDS   CLOUDY    44  38  79 SE17G24   29.87F
DES MOINES     MOCLDY    55  38  52 E12       29.77F
KIRKSVILLE     CLEAR     62  40  44 SE16      29.85F
OTTUMWA        PTCLDY    54  38  54 SE17      29.85F
ST LOUIS       PTCLDY    60  43  53 SE17      30.01F
$$


CITY           SKY/WX    TMP DP  RH WIND       PRES   REMARKS
TERRE HAUTE    CLOUDY    50  29  44 SE10      30.18F
EVANSVILLE     CLEAR     52  40  63 E3        30.20S
INDIANAPOLIS   CLOUDY    55  24  30 S14       30.20F
LAFAYETTE      CLOUDY    51  27  39 S10       30.15F
MADISON        TSTM      42  27  55 S17       29.97R WCI  34
MILWAUKEE      CLOUDY    41  28  60 SE16G31   30.00F WCI  33
$$






USA.gov is the U.S. government's official web portal to all federal, state and local government web resources and services.